GOLEM03 KBHM-KBAD

Flight info

Callsign GOLEM03
Flight time 0h 58m
Altitude 23000
Route KBHM24 BHM8 VLKNN Q30 HRISN DCT BULLE DCT SLOGN DCT SUDEE DCT KBAD BULLE ILS15 Z
Aircraft K35R/H-SDE2E3FGHIJ1RWXYZ/LB1

Departure

Time 2026-05-08 23:12
Airport Birmingham-Shuttlesworth International Airport (KBHM)

Arrival

Time 2026-05-09 00:10
Airport Barksdale Air Force Base (KBAD)
Time Latitude Longitude Altitude Speed Heading
2026-05-08 22:46 33.56767 -86.75466 676 ft 0 kts 144°
2026-05-08 23:04 33.56766 -86.75465 676 ft 0 kts 144°
2026-05-08 23:05 33.56737 -86.75431 672 ft 10 kts 111°
2026-05-08 23:05 33.56755 -86.75374 675 ft 8 kts 53°
2026-05-08 23:05 33.56766 -86.75357 673 ft 0 kts 55°
2026-05-08 23:06 33.56769 -86.75351 675 ft 4 kts 55°
2026-05-08 23:06 33.56803 -86.75294 673 ft 9 kts 57°
2026-05-08 23:06 33.56815 -86.75234 673 ft 8 kts 103°
2026-05-08 23:06 33.56770 -86.75168 675 ft 13 kts 133°
2026-05-08 23:07 33.56697 -86.75081 676 ft 15 kts 139°
2026-05-08 23:07 33.56625 -86.74998 674 ft 12 kts 128°
2026-05-08 23:07 33.56601 -86.74904 676 ft 12 kts 90°
2026-05-08 23:07 33.56628 -86.74816 676 ft 11 kts 54°
2026-05-08 23:08 33.56676 -86.74736 677 ft 13 kts 56°
2026-05-08 23:08 33.56735 -86.74633 674 ft 17 kts 56°
2026-05-08 23:08 33.56807 -86.74503 676 ft 20 kts 57°
2026-05-08 23:08 33.56884 -86.74366 675 ft 20 kts 54°
2026-05-08 23:09 33.56969 -86.74226 672 ft 22 kts 56°
2026-05-08 23:09 33.57057 -86.74072 675 ft 23 kts 54°
2026-05-08 23:09 33.57134 -86.73939 673 ft 18 kts 55°
2026-05-08 23:09 33.57191 -86.73846 675 ft 8 kts 39°
2026-05-08 23:10 33.57241 -86.73840 675 ft 5 kts 335°
2026-05-08 23:10 33.57244 -86.73842 674 ft 0 kts 330°
2026-05-08 23:10 33.57245 -86.73842 674 ft 1 kts 330°
2026-05-08 23:10 33.57248 -86.73844 674 ft 0 kts 330°
2026-05-08 23:11 33.57255 -86.73850 670 ft 3 kts 328°
2026-05-08 23:11 33.57289 -86.73879 673 ft 10 kts 320°
2026-05-08 23:11 33.57295 -86.74007 673 ft 27 kts 234°
2026-05-08 23:11 33.57036 -86.74455 675 ft 112 kts 236°
2026-05-08 23:12 33.56442 -86.75479 678 ft 183 kts 234°
2026-05-08 23:12 33.55651 -86.76878 1152 ft 216 kts 236°
2026-05-08 23:12 33.54771 -86.78473 1831 ft 248 kts 239°
2026-05-08 23:12 33.53822 -86.80465 2265 ft 301 kts 249°
2026-05-08 23:13 33.53132 -86.82930 3071 ft 312 kts 255°
2026-05-08 23:13 33.52535 -86.85443 3633 ft 317 kts 256°
2026-05-08 23:13 33.51953 -86.88043 3881 ft 330 kts 256°
2026-05-08 23:13 33.51361 -86.90766 4010 ft 345 kts 257°
2026-05-08 23:14 33.50750 -86.93597 4088 ft 359 kts 256°
2026-05-08 23:14 33.50128 -86.96510 4123 ft 371 kts 257°
2026-05-08 23:14 33.49643 -86.99588 4544 ft 386 kts 263°
2026-05-08 23:14 33.49375 -87.02872 5412 ft 404 kts 266°
2026-05-08 23:15 33.49313 -87.06303 6298 ft 418 kts 271°
2026-05-08 23:15 33.49411 -87.09820 7144 ft 428 kts 273°
2026-05-08 23:15 33.49563 -87.13409 7985 ft 435 kts 273°
2026-05-08 23:15 33.49736 -87.17054 8859 ft 440 kts 273°
2026-05-08 23:16 33.49919 -87.20731 9730 ft 443 kts 273°
2026-05-08 23:16 33.50118 -87.24430 10536 ft 445 kts 274°
2026-05-08 23:16 33.50320 -87.28093 11323 ft 446 kts 274°
2026-05-08 23:16 33.50517 -87.31801 12128 ft 445 kts 274°
2026-05-08 23:17 33.50991 -87.35466 12887 ft 446 kts 283°
2026-05-08 23:17 33.52150 -87.38915 13657 ft 449 kts 295°
2026-05-08 23:17 33.53985 -87.41979 14362 ft 455 kts 308°
2026-05-08 23:17 33.56393 -87.44476 15057 ft 464 kts 319°
2026-05-08 23:18 33.59270 -87.46321 15790 ft 474 kts 329°
2026-05-08 23:18 33.62333 -87.47808 16545 ft 475 kts 331°
2026-05-08 23:18 33.65426 -87.49235 17306 ft 475 kts 331°
2026-05-08 23:18 33.68526 -87.50643 18075 ft 475 kts 331°
2026-05-08 23:19 33.71619 -87.52040 18790 ft 474 kts 331°
2026-05-08 23:19 33.74702 -87.53433 19486 ft 473 kts 331°
2026-05-08 23:19 33.77782 -87.54829 20197 ft 472 kts 330°
2026-05-08 23:19 33.80853 -87.56219 20927 ft 471 kts 330°
2026-05-08 23:20 33.83912 -87.57608 21675 ft 470 kts 330°
2026-05-08 23:20 33.86955 -87.59011 22371 ft 468 kts 328°
2026-05-08 23:20 33.89783 -87.60864 22708 ft 461 kts 317°
2026-05-08 23:20 33.92184 -87.63335 22875 ft 459 kts 307°
2026-05-08 23:21 33.94117 -87.66397 22943 ft 459 kts 296°
2026-05-08 23:21 33.95446 -87.69941 22973 ft 462 kts 285°
2026-05-08 23:21 33.96073 -87.73692 22983 ft 467 kts 274°
2026-05-08 23:21 33.96016 -87.77626 22994 ft 472 kts 265°
2026-05-08 23:22 33.95492 -87.81545 22982 ft 475 kts 257°
2026-05-08 23:22 33.94199 -87.85219 22973 ft 483 kts 243°
2026-05-08 23:22 33.92068 -87.88401 22978 ft 495 kts 230°
2026-05-08 23:22 33.89444 -87.91125 23004 ft 500 kts 226°
2026-05-08 23:23 33.86728 -87.93740 22992 ft 500 kts 225°
2026-05-08 23:23 33.84004 -87.96311 22985 ft 501 kts 225°
2026-05-08 23:23 33.81240 -87.98897 22975 ft 501 kts 225°
2026-05-08 23:23 33.78474 -88.01472 22976 ft 501 kts 224°
2026-05-08 23:24 33.75716 -88.04037 22977 ft 502 kts 224°
2026-05-08 23:24 33.72957 -88.06603 22974 ft 501 kts 225°
2026-05-08 23:24 33.70196 -88.09173 22971 ft 502 kts 225°
2026-05-08 23:24 33.67424 -88.11727 22962 ft 503 kts 223°
2026-05-08 23:25 33.64524 -88.14042 22960 ft 508 kts 220°
2026-05-08 23:25 33.61542 -88.16324 22962 ft 507 kts 220°
2026-05-08 23:25 33.58704 -88.18787 22948 ft 498 kts 227°
2026-05-08 23:25 33.56453 -88.21870 22950 ft 486 kts 240°
2026-05-08 23:26 33.54747 -88.25336 22968 ft 482 kts 246°
2026-05-08 23:26 33.53320 -88.28970 22972 ft 480 kts 250°
2026-05-08 23:26 33.52115 -88.32682 22965 ft 478 kts 252°
2026-05-08 23:26 33.51029 -88.36444 22961 ft 478 kts 254°
2026-05-08 23:27 33.50032 -88.40255 22963 ft 477 kts 256°
2026-05-08 23:27 33.49232 -88.44110 22978 ft 476 kts 262°
2026-05-08 23:27 33.48942 -88.48046 22992 ft 475 kts 266°
2026-05-08 23:27 33.48600 -88.51985 22983 ft 476 kts 261°
2026-05-08 23:28 33.47835 -88.55845 22994 ft 477 kts 257°
2026-05-08 23:28 33.47054 -88.59665 22986 ft 476 kts 261°
2026-05-08 23:28 33.46549 -88.63574 22992 ft 476 kts 262°
2026-05-08 23:28 33.45846 -88.67449 22989 ft 477 kts 257°
2026-05-08 23:29 33.45091 -88.71335 22987 ft 476 kts 261°
2026-05-08 23:29 33.44580 -88.75249 22962 ft 476 kts 261°
2026-05-08 23:29 33.43828 -88.79120 22951 ft 477 kts 257°
2026-05-08 23:29 33.43118 -88.82993 22950 ft 476 kts 262°
2026-05-08 23:30 33.42594 -88.86910 22951 ft 477 kts 260°
2026-05-08 23:30 33.41802 -88.90768 22954 ft 477 kts 257°
2026-05-08 23:30 33.41138 -88.94656 22950 ft 477 kts 262°
2026-05-08 23:30 33.40586 -88.98570 22951 ft 477 kts 259°
2026-05-08 23:31 33.39779 -89.02377 22962 ft 478 kts 258°
2026-05-08 23:31 33.39157 -89.06278 22962 ft 477 kts 262°
2026-05-08 23:31 33.38566 -89.10180 22962 ft 478 kts 258°
2026-05-08 23:31 33.37740 -89.14036 22986 ft 478 kts 258°
2026-05-08 23:32 33.37159 -89.17948 22987 ft 477 kts 262°
2026-05-08 23:32 33.36518 -89.21844 22985 ft 478 kts 258°
2026-05-08 23:32 33.35699 -89.25707 22982 ft 478 kts 259°
2026-05-08 23:32 33.35146 -89.29627 22982 ft 478 kts 262°
2026-05-08 23:33 33.34448 -89.33523 22981 ft 479 kts 257°
2026-05-08 23:33 33.33653 -89.37387 22970 ft 479 kts 260°
2026-05-08 23:33 33.33116 -89.41313 22966 ft 478 kts 261°
2026-05-08 23:33 33.32365 -89.45194 22959 ft 479 kts 257°
2026-05-08 23:34 33.31607 -89.49067 22954 ft 479 kts 261°
2026-05-08 23:34 33.31074 -89.52944 22953 ft 479 kts 260°
2026-05-08 23:34 33.30276 -89.56825 22953 ft 480 kts 256°
2026-05-08 23:34 33.29559 -89.60716 22949 ft 479 kts 261°
2026-05-08 23:35 33.28997 -89.64642 22950 ft 479 kts 259°
2026-05-08 23:35 33.28165 -89.68508 22950 ft 480 kts 257°
2026-05-08 23:35 33.27499 -89.72406 22949 ft 479 kts 262°
2026-05-08 23:35 33.26899 -89.76336 22948 ft 480 kts 258°
2026-05-08 23:36 33.26049 -89.80199 22954 ft 480 kts 257°
2026-05-08 23:36 33.25428 -89.84113 22953 ft 479 kts 262°
2026-05-08 23:36 33.24781 -89.88026 22948 ft 480 kts 257°
2026-05-08 23:36 33.23933 -89.91884 22952 ft 480 kts 258°
2026-05-08 23:37 33.23346 -89.95813 22957 ft 480 kts 261°
2026-05-08 23:37 33.22644 -89.99711 22957 ft 481 kts 256°
2026-05-08 23:37 33.21816 -90.03583 22977 ft 482 kts 259°
2026-05-08 23:37 33.21253 -90.07488 22969 ft 482 kts 260°
2026-05-08 23:38 33.20489 -90.11390 22961 ft 483 kts 256°
2026-05-08 23:38 33.19690 -90.15295 22957 ft 483 kts 259°
2026-05-08 23:38 33.19124 -90.19245 22961 ft 483 kts 259°
2026-05-08 23:38 33.18309 -90.23140 22963 ft 484 kts 255°
2026-05-08 23:39 33.17555 -90.27046 22957 ft 483 kts 260°
2026-05-08 23:39 33.16974 -90.30990 22958 ft 484 kts 258°
2026-05-08 23:39 33.16301 -90.34920 22943 ft 484 kts 263°
2026-05-08 23:39 33.16264 -90.38944 22961 ft 485 kts 271°
2026-05-08 23:40 33.16496 -90.42966 22969 ft 485 kts 272°
2026-05-08 23:40 33.16785 -90.46983 22967 ft 486 kts 273°
2026-05-08 23:40 33.17095 -90.50950 22965 ft 486 kts 274°
2026-05-08 23:40 33.17421 -90.54966 22961 ft 486 kts 274°
2026-05-08 23:41 33.17755 -90.58985 22959 ft 486 kts 274°
2026-05-08 23:41 33.18094 -90.63008 22962 ft 486 kts 274°
2026-05-08 23:41 33.18434 -90.67023 22961 ft 486 kts 274°
2026-05-08 23:41 33.18553 -90.71054 22952 ft 485 kts 267°
2026-05-08 23:42 33.18350 -90.75065 22958 ft 484 kts 265°
2026-05-08 23:42 33.17993 -90.79015 22962 ft 484 kts 262°
2026-05-08 23:42 33.17511 -90.82999 22958 ft 484 kts 261°
2026-05-08 23:42 33.17009 -90.86956 22960 ft 485 kts 261°
2026-05-08 23:43 33.16549 -90.90958 22956 ft 485 kts 263°
2026-05-08 23:43 33.16178 -90.94959 22958 ft 485 kts 263°
2026-05-08 23:43 33.15836 -90.98964 22955 ft 485 kts 263°
2026-05-08 23:43 33.15509 -91.02968 22958 ft 485 kts 264°
2026-05-08 23:44 33.15191 -91.06995 22958 ft 485 kts 264°
2026-05-08 23:44 33.14882 -91.10961 22958 ft 485 kts 264°
2026-05-08 23:44 33.14569 -91.15020 22953 ft 485 kts 264°
2026-05-08 23:44 33.14237 -91.18971 22957 ft 485 kts 263°
2026-05-08 23:45 33.13799 -91.22967 22953 ft 485 kts 262°
2026-05-08 23:45 33.13326 -91.26952 22955 ft 485 kts 261°
2026-05-08 23:45 33.12839 -91.30939 22953 ft 485 kts 261°
2026-05-08 23:45 33.12348 -91.34909 22951 ft 485 kts 261°
2026-05-08 23:46 33.11853 -91.38909 22947 ft 485 kts 261°
2026-05-08 23:46 33.11354 -91.42894 22945 ft 486 kts 261°
2026-05-08 23:46 33.10822 -91.46877 22947 ft 486 kts 260°
2026-05-08 23:46 33.10275 -91.50853 22940 ft 486 kts 260°
2026-05-08 23:47 33.09725 -91.54834 22941 ft 486 kts 260°
2026-05-08 23:47 33.09173 -91.58814 22943 ft 486 kts 260°
2026-05-08 23:47 33.08630 -91.62745 22939 ft 486 kts 260°
2026-05-08 23:47 33.08083 -91.66715 22936 ft 487 kts 260°
2026-05-08 23:48 33.07533 -91.70710 22937 ft 487 kts 260°
2026-05-08 23:48 33.06987 -91.74699 22936 ft 487 kts 260°
2026-05-08 23:48 33.06443 -91.78681 22939 ft 487 kts 260°
2026-05-08 23:48 33.05898 -91.82672 22938 ft 487 kts 260°
2026-05-08 23:49 33.05358 -91.86660 22826 ft 487 kts 261°
2026-05-08 23:49 33.04826 -91.90603 22406 ft 478 kts 261°
2026-05-08 23:49 33.04302 -91.94491 22002 ft 470 kts 261°
2026-05-08 23:49 33.03783 -91.98303 21625 ft 464 kts 261°
2026-05-08 23:50 33.03266 -92.02076 21248 ft 459 kts 261°
2026-05-08 23:50 33.02750 -92.05814 20865 ft 455 kts 261°
2026-05-08 23:50 33.02233 -92.09517 20496 ft 451 kts 261°
2026-05-08 23:50 33.01891 -92.11951 20134 ft 451 kts 261°
2026-05-08 23:51 33.01368 -92.15680 19416 ft 456 kts 261°
2026-05-08 23:51 33.00840 -92.19403 18726 ft 460 kts 261°
2026-05-08 23:51 33.00232 -92.23154 18002 ft 464 kts 256°
2026-05-08 23:51 32.98904 -92.26675 17214 ft 471 kts 242°
2026-05-08 23:52 32.97389 -92.30126 16459 ft 468 kts 251°
2026-05-08 23:52 32.96777 -92.33920 15716 ft 467 kts 266°
2026-05-08 23:52 32.96675 -92.37787 15024 ft 467 kts 269°
2026-05-08 23:52 32.96644 -92.41647 14324 ft 468 kts 270°
2026-05-08 23:53 32.96631 -92.45516 13619 ft 466 kts 270°
2026-05-08 23:53 32.96522 -92.49361 12839 ft 461 kts 267°
2026-05-08 23:53 32.96260 -92.53122 12629 ft 449 kts 266°
2026-05-08 23:53 32.95902 -92.56721 12495 ft 437 kts 263°
2026-05-08 23:54 32.95393 -92.60282 12366 ft 427 kts 261°
2026-05-08 23:54 32.94851 -92.63743 12228 ft 420 kts 261°
2026-05-08 23:54 32.94306 -92.67126 12099 ft 413 kts 261°
2026-05-08 23:55 32.93219 -92.73768 11846 ft 405 kts 260°
2026-05-08 23:55 32.92682 -92.77039 11715 ft 402 kts 261°
2026-05-08 23:55 32.92152 -92.80291 11603 ft 399 kts 261°
2026-05-08 23:55 32.91620 -92.83522 11469 ft 397 kts 260°
2026-05-08 23:56 32.91101 -92.86699 11357 ft 395 kts 261°
2026-05-08 23:56 32.90577 -92.89914 11243 ft 394 kts 261°
2026-05-08 23:56 32.90057 -92.93107 11115 ft 393 kts 261°
2026-05-08 23:56 32.89540 -92.96296 11000 ft 393 kts 261°
2026-05-08 23:57 32.89023 -92.99492 10889 ft 393 kts 261°
2026-05-08 23:57 32.88506 -93.02679 10757 ft 392 kts 261°
2026-05-08 23:57 32.87995 -93.05871 10529 ft 395 kts 261°
2026-05-08 23:57 32.87481 -93.09095 10297 ft 397 kts 261°
2026-05-08 23:58 32.86969 -93.12336 10054 ft 399 kts 261°
2026-05-08 23:58 32.86454 -93.15608 9700 ft 404 kts 261°
2026-05-08 23:58 32.85942 -93.18909 9323 ft 407 kts 261°
2026-05-08 23:58 32.85430 -93.22236 8942 ft 410 kts 261°
2026-05-08 23:59 32.84927 -93.25539 8580 ft 413 kts 261°
2026-05-08 23:59 32.84417 -93.28916 8213 ft 416 kts 261°
2026-05-08 23:59 32.83897 -93.32360 7847 ft 418 kts 261°
2026-05-08 23:59 32.83391 -93.35727 7483 ft 421 kts 261°
2026-05-09 00:00 32.82873 -93.39206 7114 ft 422 kts 261°
2026-05-09 00:00 32.82363 -93.42650 6780 ft 419 kts 261°
2026-05-09 00:00 32.81898 -93.45788 6542 ft 365 kts 261°
2026-05-09 00:00 32.81484 -93.48531 6202 ft 312 kts 260°
2026-05-09 00:01 32.81120 -93.50924 5811 ft 279 kts 260°
2026-05-09 00:01 32.80798 -93.53100 5411 ft 257 kts 260°
2026-05-09 00:01 32.80516 -93.55132 4988 ft 243 kts 260°
2026-05-09 00:01 32.80269 -93.57093 4109 ft 246 kts 260°
2026-05-09 00:02 32.80036 -93.59102 3821 ft 234 kts 260°
2026-05-09 00:02 32.79842 -93.60910 3799 ft 213 kts 260°
2026-05-09 00:02 32.79671 -93.62616 3586 ft 206 kts 260°
2026-05-09 00:02 32.79504 -93.64336 3189 ft 211 kts 261°
2026-05-09 00:03 32.79340 -93.66033 3061 ft 204 kts 261°
2026-05-09 00:03 32.79172 -93.67760 2906 ft 214 kts 261°
2026-05-09 00:03 32.79006 -93.69519 2827 ft 219 kts 260°
2026-05-09 00:03 32.78658 -93.71296 2707 ft 222 kts 247°
2026-05-09 00:04 32.77811 -93.72791 2564 ft 219 kts 215°
2026-05-09 00:04 32.76479 -93.73482 2552 ft 202 kts 190°
2026-05-09 00:04 32.75146 -93.73806 2543 ft 191 kts 193°
2026-05-09 00:04 32.73932 -93.74440 2478 ft 194 kts 210°
2026-05-09 00:05 32.72822 -93.75419 2402 ft 201 kts 218°
2026-05-09 00:05 32.71713 -93.76409 2393 ft 199 kts 208°
2026-05-09 00:05 32.70480 -93.77168 2384 ft 198 kts 205°
2026-05-09 00:05 32.69212 -93.77771 2421 ft 195 kts 193°
2026-05-09 00:06 32.67862 -93.77929 2393 ft 196 kts 175°
2026-05-09 00:06 32.66538 -93.77532 2306 ft 198 kts 159°
2026-05-09 00:06 32.65338 -93.76763 2370 ft 194 kts 145°
2026-05-09 00:06 32.64278 -93.75786 2414 ft 192 kts 143°
2026-05-09 00:07 32.63182 -93.74853 2236 ft 201 kts 146°
2026-05-09 00:07 32.62035 -93.73971 2056 ft 191 kts 149°
2026-05-09 00:07 32.60924 -93.73211 1891 ft 179 kts 152°
2026-05-09 00:07 32.59847 -93.72509 1740 ft 173 kts 151°
2026-05-09 00:08 32.58798 -93.71814 1544 ft 173 kts 152°
2026-05-09 00:08 32.57739 -93.71127 1313 ft 174 kts 152°
2026-05-09 00:08 32.56682 -93.70445 1155 ft 170 kts 152°
2026-05-09 00:08 32.55662 -93.69768 1020 ft 168 kts 151°
2026-05-09 00:09 32.54634 -93.69109 856 ft 170 kts 153°
2026-05-09 00:09 32.53591 -93.68455 652 ft 172 kts 152°
2026-05-09 00:09 32.52533 -93.67769 419 ft 171 kts 152°
2026-05-09 00:09 32.51493 -93.67096 215 ft 162 kts 152°
2026-05-09 00:10 32.50630 -93.66541 170 ft 114 kts 152°
2026-05-09 00:10 32.50113 -93.66208 170 ft 73 kts 152°
2026-05-09 00:10 32.49709 -93.65946 170 ft 59 kts 151°
2026-05-09 00:10 32.49436 -93.65769 175 ft 35 kts 149°
2026-05-09 00:11 32.49249 -93.65647 174 ft 18 kts 156°
2026-05-09 00:11 32.49175 -93.65635 172 ft 7 kts 199°
2026-05-09 00:11 32.49134 -93.65693 172 ft 13 kts 243°
2026-05-09 00:11 32.49084 -93.65802 173 ft 16 kts 239°
2026-05-09 00:12 32.49027 -93.65921 173 ft 17 kts 245°
2026-05-09 00:12 32.48968 -93.66051 172 ft 18 kts 239°
2026-05-09 00:12 32.48946 -93.66148 173 ft 5 kts 307°
2026-05-09 00:12 32.48988 -93.66172 173 ft 11 kts 336°
2026-05-09 00:13 32.49097 -93.66241 172 ft 24 kts 332°
2026-05-09 00:13 32.49247 -93.66339 173 ft 25 kts 331°
2026-05-09 00:13 32.49349 -93.66408 171 ft 3 kts 302°
2026-05-09 00:13 32.49339 -93.66445 172 ft 10 kts 240°
2026-05-09 00:14 32.49298 -93.66530 173 ft 13 kts 242°
2026-05-09 00:14 32.49259 -93.66615 174 ft 9 kts 240°
2026-05-09 00:14 32.49252 -93.66672 174 ft 4 kts 315°
2026-05-09 00:14 32.49277 -93.66687 174 ft 5 kts 332°
2026-05-09 00:15 32.49308 -93.66707 174 ft 0 kts 332°